Weather History for KEWB - September, 2012

Change the Weather History Date:

Thursday, September 6, 2012

  Actual Average Record
Temperature  
Mean Temperature 68 °F -  
Max Temperature 77 °F 76 °F 87 °F (1983)
Min Temperature 60 °F 61 °F 42 °F (2000)
Cooling Degree Days 2    
Growing Degree Days 18 (Base 50)    
Moisture  
Dew Point 62 °F    
Average Humidity 89    
Maximum Humidity 100    
Minimum Humidity 64    
Precipitation  
Precipitation 0.00 in - - ()
Sea Level Pressure  
Sea Level Pressure 29.86 in    
Wind  
Wind Speed 1 mph (South)    
Max Wind Speed 9 mph    
Max Gust Speed -    
Visibility 6 miles    
Events Fog    
Averages and records for this station are not official NWS values.
T = Trace of Precipitation, MM = Missing Value Source: NWS Daily Summary

Daily Weather History Graph

Daily Weather History Graph

Search for Another Location

Airport or City:

Trip Planner

Search our weather history database for the weather conditions in past years. The results will help you decide how hot, cold, wet, or windy it might be!

Date:

Astronomy

Sep. 06, 2012 Rise Set
Actual Time 6:15 AM EDT 7:07 PM EDT
Civil Twilight 5:47 AM EDT 7:36 PM EDT
Nautical Twilight 5:13 AM EDT 8:09 PM EDT
Astronomical Twilight 4:38 AM EDT 8:44 PM EDT
Moon 10:10 PM EDT (9/6) 12:17 PM EDT (9/6)
Length of Visible Light 13h 49m
Length of Day
12h 52m
Waning Gibbous, 67% of the Moon is Illuminated
Sep 6
Waning Gibbous
Sep 8
Last Quarter
Sep 15
New
Sep 22
First Quarter
Sep 29
Full

Hourly Weather History & Observations

Time (EDT) Temp. Dew Point Humidity Pressure Visibility Wind Dir Wind Speed Gust Speed Precip Events Conditions
12:53 AM 64.9 °F 63.0 °F 93% 29.83 in 9.0 mi Calm Calm - N/A   Clear
1:22 AM 62.6 °F 62.6 °F 100% 29.83 in 1.8 mi Calm Calm - N/A   Partly Cloudy
1:32 AM 62.6 °F 60.8 °F 94% 29.82 in 0.5 mi Calm Calm - N/A Fog Fog
1:41 AM 62.6 °F 62.6 °F 100% 29.83 in 2.5 mi Calm Calm - N/A   Clear
1:53 AM 62.1 °F 61.0 °F 96% 29.84 in 1.0 mi Calm Calm - N/A   Clear
2:01 AM 62.6 °F 60.8 °F 94% 29.84 in 0.8 mi Calm Calm - N/A   Clear
2:06 AM 62.6 °F 62.6 °F 100% 29.84 in 2.0 mi Calm Calm - N/A   Clear
2:14 AM 62.6 °F 62.6 °F 100% 29.84 in 5.0 mi Calm Calm - N/A   Partly Cloudy
2:18 AM 62.6 °F 60.8 °F 94% 29.84 in 1.8 mi Calm Calm - N/A   Scattered Clouds
2:28 AM 62.6 °F 60.8 °F 94% 29.84 in 0.5 mi Calm Calm - N/A Fog Fog
2:46 AM 62.6 °F 60.8 °F 94% 29.84 in 2.0 mi Calm Calm - N/A   Overcast
2:53 AM 62.1 °F 61.0 °F 96% 29.83 in 7.0 mi Calm Calm - N/A   Overcast
3:29 AM 62.6 °F 62.6 °F 100% 29.83 in 1.8 mi Calm Calm - N/A   Overcast
3:43 AM 62.6 °F 62.6 °F 100% 29.83 in 0.8 mi Calm Calm - N/A   Overcast
3:49 AM 62.6 °F 62.6 °F 100% 29.83 in 2.5 mi Calm Calm - N/A   Overcast
3:53 AM 64.0 °F 62.1 °F 93% 29.83 in 6.0 mi Calm Calm - N/A   Overcast
4:53 AM 62.1 °F 61.0 °F 96% 29.84 in 4.0 mi Calm Calm - N/A   Partly Cloudy
5:03 AM 62.6 °F 60.8 °F 94% 29.85 in 2.5 mi Calm Calm - N/A   Clear
5:12 AM 62.6 °F 60.8 °F 94% 29.84 in 1.8 mi Calm Calm - N/A   Clear
5:21 AM 60.8 °F 59.0 °F 94% 29.85 in 0.5 mi Calm Calm - N/A Fog Fog
5:45 AM 62.6 °F 60.8 °F 94% 29.85 in 2.0 mi Calm Calm - N/A   Clear
5:53 AM 62.1 °F 61.0 °F 96% 29.86 in 1.5 mi Calm Calm - N/A   Clear
6:05 AM 60.8 °F 60.8 °F 100% 29.87 in 1.0 mi Calm Calm - N/A   Mist
6:10 AM 60.8 °F 59.0 °F 94% 29.87 in 0.2 mi Calm Calm - N/A Fog Fog
6:26 AM 60.8 °F 59.0 °F 94% 29.88 in 0.8 mi Calm Calm - N/A   Mist
6:53 AM 61.0 °F 60.1 °F 97% 29.89 in 4.0 mi Calm Calm - N/A   Clear
7:53 AM 66.0 °F 64.0 °F 93% 29.90 in 10.0 mi Calm Calm - N/A   Clear
8:53 AM 71.1 °F 63.0 °F 75% 29.89 in 10.0 mi Calm Calm - N/A   Clear
9:53 AM 73.4 °F 62.6 °F 69% 29.89 in 10.0 mi ESE 5.8 mph - N/A   Clear
10:53 AM 75.9 °F 64.0 °F 67% 29.90 in 10.0 mi Variable 4.6 mph - N/A   Scattered Clouds
11:53 AM 75.9 °F 63.0 °F 64% 29.88 in 10.0 mi Calm Calm - N/A   Mostly Cloudy
12:53 PM 75.0 °F 64.0 °F 69% 29.88 in 10.0 mi SE 6.9 mph - N/A   Mostly Cloudy
1:06 PM 73.4 °F 64.4 °F 73% 29.88 in 10.0 mi SE 8.1 mph - N/A   Overcast
1:53 PM 75.9 °F 64.0 °F 67% 29.88 in 10.0 mi SSW 8.1 mph - N/A   Overcast
2:53 PM 73.9 °F 64.9 °F 73% 29.88 in 10.0 mi South 9.2 mph - N/A   Mostly Cloudy
3:53 PM 73.9 °F 66.0 °F 76% 29.88 in 10.0 mi SW 5.8 mph - N/A   Scattered Clouds
4:53 PM 73.0 °F 64.0 °F 73% 29.87 in 10.0 mi SW 9.2 mph - N/A   Partly Cloudy
5:53 PM 71.1 °F 63.0 °F 75% 29.88 in 10.0 mi SSW 8.1 mph - N/A   Clear
6:53 PM 69.1 °F 63.0 °F 81% 29.88 in 10.0 mi SSW 5.8 mph - N/A   Clear
7:53 PM 66.9 °F 64.0 °F 90% 29.89 in 10.0 mi Calm Calm - N/A   Clear
8:53 PM 66.0 °F 64.0 °F 93% 29.90 in 10.0 mi Calm Calm - N/A   Clear
9:53 PM 64.9 °F 63.0 °F 93% 29.88 in 10.0 mi SSW 3.5 mph - N/A   Clear
10:53 PM 64.9 °F 63.0 °F 93% 29.89 in 10.0 mi Calm Calm - N/A   Clear
11:53 PM 64.0 °F 63.0 °F 96% 29.89 in 8.0 mi Calm Calm - N/A   Clear